カタログに戻る

TIANWEN-2

運用中科学VLEO
NORAD 64197·PAYLOAD·🇨🇳 China

打ち上げ May 28, 2025 から Xichang Satellite Launch Center

Loading…

次のパス (今後24時間)

TLE

古いSource: Space-Track

元期: May 28, 2025, 17:31 UTC

1 64197U 25114A   25148.73023148  .00002075 -65600-5  00000-0 0  9995
2 64197  28.8798 146.7974 0010000 102.8623   0.5000 16.01555694    09

AllMySatでTIANWEN-2をリアルタイム追跡

Download on the App Store